owner,sensor,date,latitude,longitude,vertical_datum,wind_speed,wind_to_direction,wind_speed_of_gust,qcFlag 
TCOON,ioos:station:TCOON:031:1,2019-06-01T00:00:00Z,28.4073,-96.7122,0.0,4.8,87.0,6.6,'11111222,11111222,11111222' 
TCOON,ioos:station:TCOON:031:1,2019-06-01T00:06:00Z,28.4073,-96.7122,0.0,5.2,101.0,6.1,'11111222,11111222,11111222' 
TCOON,ioos:station:TCOON:031:1,2019-06-01T00:12:00Z,28.4073,-96.7122,0.0,3.9,100.0,6.0,'11111222,11111222,11111222' 
TCOON,ioos:station:TCOON:031:1,2019-06-01T00:18:00Z,28.4073,-96.7122,0.0,4.7,95.0,6.2,'11111222,11111222,11111222' 
TCOON,ioos:station:TCOON:031:1,2019-06-01T00:24:00Z,28.4073,-96.7122,0.0,4.7,95.0,6.2,'11111222,11111222,11111222' 
TCOON,ioos:station:TCOON:031:1,2019-06-01T00:30:00Z,28.4073,-96.7122,0.0,4.1,101.0,5.7,'11111222,11111222,11111222' 
TCOON,ioos:station:TCOON:031:1,2019-06-01T00:36:00Z,28.4073,-96.7122,0.0,4.9,103.0,5.9,'11111222,11111222,11111222' 
TCOON,ioos:station:TCOON:031:1,2019-06-01T00:42:00Z,28.4073,-96.7122,0.0,4.6,93.0,6.1,'11111222,11111222,11111222' 
TCOON,ioos:station:TCOON:031:1,2019-06-01T00:48:00Z,28.4073,-96.7122,0.0,3.7,89.0,5.7,'11111222,11111222,11111222' 
TCOON,ioos:station:TCOON:031:1,2019-06-01T00:54:00Z,28.4073,-96.7122,0.0,3.7,85.0,5.7,'11111222,11111222,11111222' 
TCOON,ioos:station:TCOON:031:1,2019-06-01T01:00:00Z,28.4073,-96.7122,0.0,3.4,79.0,5.3,'11111222,11111222,11111222' 
TCOON,ioos:station:TCOON:031:1,2019-06-01T01:06:00Z,28.4073,-96.7122,0.0,3.0,88.0,4.4,'11111222,11111222,11111222' 
TCOON,ioos:station:TCOON:031:1,2019-06-01T01:12:00Z,28.4073,-96.7122,0.0,2.9,80.0,5.7,'11111222,11111222,11111222' 
TCOON,ioos:station:TCOON:031:1,2019-06-01T01:18:00Z,28.4073,-96.7122,0.0,3.4,87.0,4.2,'11111222,11111222,11111222' 
TCOON,ioos:station:TCOON:031:1,2019-06-01T01:24:00Z,28.4073,-96.7122,0.0,3.4,87.0,4.2,'11111222,11111222,11111222' 
TCOON,ioos:station:TCOON:031:1,2019-06-01T01:30:00Z,28.4073,-96.7122,0.0,3.2,90.0,4.2,'11111222,11111222,11111222' 
TCOON,ioos:station:TCOON:031:1,2019-06-01T01:36:00Z,28.4073,-96.7122,0.0,2.5,85.0,4.2,'11111222,11111222,11111222' 
TCOON,ioos:station:TCOON:031:1,2019-06-01T01:42:00Z,28.4073,-96.7122,0.0,3.7,99.0,4.7,'11111222,11111222,11111222' 
TCOON,ioos:station:TCOON:031:1,2019-06-01T01:48:00Z,28.4073,-96.7122,0.0,3.7,98.0,4.7,'11111222,11111222,11111222' 
TCOON,ioos:station:TCOON:031:1,2019-06-01T01:54:00Z,28.4073,-96.7122,0.0,2.6,85.0,3.9,'11111222,11111222,11111222' 
TCOON,ioos:station:TCOON:031:1,2019-06-01T02:00:00Z,28.4073,-96.7122,0.0,2.2,83.0,3.3,'11111222,11111222,11111222' 
TCOON,ioos:station:TCOON:031:1,2019-06-01T02:06:00Z,28.4073,-96.7122,0.0,2.3,76.0,3.3,'11111222,11111222,11111222' 
TCOON,ioos:station:TCOON:031:1,2019-06-01T02:12:00Z,28.4073,-96.7122,0.0,2.5,72.0,3.5,'11111222,11111222,11111222' 
TCOON,ioos:station:TCOON:031:1,2019-06-01T02:18:00Z,28.4073,-96.7122,0.0,2.2,63.0,3.2,'11111222,11111222,11111222' 
TCOON,ioos:station:TCOON:031:1,2019-06-01T02:24:00Z,28.4073,-96.7122,0.0,2.2,63.0,3.2,'11111222,11111222,11111222' 
TCOON,ioos:station:TCOON:031:1,2019-06-01T02:30:00Z,28.4073,-96.7122,0.0,1.7,81.0,2.7,'11111222,11111222,11111222' 
TCOON,ioos:station:TCOON:031:1,2019-06-01T02:36:00Z,28.4073,-96.7122,0.0,1.7,82.0,2.7,'11111222,11111222,11111222' 
TCOON,ioos:station:TCOON:031:1,2019-06-01T02:42:00Z,28.4073,-96.7122,0.0,2.1,66.0,2.7,'11111222,11111222,11111222' 
TCOON,ioos:station:TCOON:031:1,2019-06-01T02:48:00Z,28.4073,-96.7122,0.0,1.8,64.0,2.7,'11111222,11111222,11111222' 
TCOON,ioos:station:TCOON:031:1,2019-06-01T02:54:00Z,28.4073,-96.7122,0.0,1.9,83.0,2.9,'11111222,11111222,11111222' 
TCOON,ioos:station:TCOON:031:1,2019-06-01T03:00:00Z,28.4073,-96.7122,0.0,2.3,63.0,2.9,'11111222,11111222,11111222' 
TCOON,ioos:station:TCOON:031:1,2019-06-01T03:06:00Z,28.4073,-96.7122,0.0,1.9,67.0,2.7,'11111222,11111222,11111222' 
TCOON,ioos:station:TCOON:031:1,2019-06-01T03:12:00Z,28.4073,-96.7122,0.0,1.6,64.0,2.5,'11111222,11111222,11111222' 
TCOON,ioos:station:TCOON:031:1,2019-06-01T03:18:00Z,28.4073,-96.7122,0.0,1.3,61.0,2.3,'11111222,11111222,11111222' 
TCOON,ioos:station:TCOON:031:1,2019-06-01T03:24:00Z,28.4073,-96.7122,0.0,1.3,61.0,2.3,'11111222,11111222,11111222' 
TCOON,ioos:station:TCOON:031:1,2019-06-01T03:30:00Z,28.4073,-96.7122,0.0,1.4,76.0,2.1,'11111222,11111222,11111222' 
TCOON,ioos:station:TCOON:031:1,2019-06-01T03:36:00Z,28.4073,-96.7122,0.0,1.4,76.0,2.3,'11111222,11111222,11111222' 
TCOON,ioos:station:TCOON:031:1,2019-06-01T03:42:00Z,28.4073,-96.7122,0.0,1.6,86.0,2.3,'11111222,11111222,11111222' 
TCOON,ioos:station:TCOON:031:1,2019-06-01T03:48:00Z,28.4073,-96.7122,0.0,1.3,87.0,2.5,'11111222,11111222,11111222' 
TCOON,ioos:station:TCOON:031:1,2019-06-01T03:54:00Z,28.4073,-96.7122,0.0,1.8,92.0,2.9,'11111222,11111222,11111222' 
TCOON,ioos:station:TCOON:031:1,2019-06-01T04:00:00Z,28.4073,-96.7122,0.0,1.2,72.0,1.8,'11111222,11111222,11111222' 
TCOON,ioos:station:TCOON:031:1,2019-06-01T04:06:00Z,28.4073,-96.7122,0.0,1.6,72.0,2.7,'11111222,11111222,11111222' 
TCOON,ioos:station:TCOON:031:1,2019-06-01T04:12:00Z,28.4073,-96.7122,0.0,1.8,79.0,2.5,'11111222,11111222,11111222' 
TCOON,ioos:station:TCOON:031:1,2019-06-01T04:18:00Z,28.4073,-96.7122,0.0,1.6,82.0,2.3,'11111222,11111222,11111222' 
TCOON,ioos:station:TCOON:031:1,2019-06-01T04:24:00Z,28.4073,-96.7122,0.0,1.6,82.0,2.3,'11111222,11111222,11111222' 
TCOON,ioos:station:TCOON:031:1,2019-06-01T04:30:00Z,28.4073,-96.7122,0.0,1.4,80.0,1.7,'11111222,11111222,11111222' 
TCOON,ioos:station:TCOON:031:1,2019-06-01T04:36:00Z,28.4073,-96.7122,0.0,1.4,79.0,2.3,'11111222,11111222,11111222' 
TCOON,ioos:station:TCOON:031:1,2019-06-01T04:42:00Z,28.4073,-96.7122,0.0,1.4,86.0,2.0,'11111222,11111222,11111222' 
TCOON,ioos:station:TCOON:031:1,2019-06-01T04:48:00Z,28.4073,-96.7122,0.0,2.0,111.0,2.5,'11111222,11111222,11111222' 
TCOON,ioos:station:TCOON:031:1,2019-06-01T04:54:00Z,28.4073,-96.7122,0.0,3.1,117.0,3.8,'11111222,11111222,11111222' 
TCOON,ioos:station:TCOON:031:1,2019-06-01T05:00:00Z,28.4073,-96.7122,0.0,2.4,108.0,3.8,'11111222,11111222,11111222' 
TCOON,ioos:station:TCOON:031:1,2019-06-01T05:06:00Z,28.4073,-96.7122,0.0,2.8,107.0,3.8,'11111222,11111222,11111222' 
TCOON,ioos:station:TCOON:031:1,2019-06-01T05:12:00Z,28.4073,-96.7122,0.0,2.9,110.0,3.7,'11111222,11111222,11111222' 
TCOON,ioos:station:TCOON:031:1,2019-06-01T05:18:00Z,28.4073,-96.7122,0.0,2.7,102.0,3.9,'11111222,11111222,11111222' 
TCOON,ioos:station:TCOON:031:1,2019-06-01T05:24:00Z,28.4073,-96.7122,0.0,2.7,102.0,3.9,'11111222,11111222,11111222' 
TCOON,ioos:station:TCOON:031:1,2019-06-01T05:30:00Z,28.4073,-96.7122,0.0,2.2,106.0,2.9,'11111222,11111222,11111222' 
TCOON,ioos:station:TCOON:031:1,2019-06-01T05:36:00Z,28.4073,-96.7122,0.0,2.8,107.0,3.2,'11111222,11111222,11111222' 
TCOON,ioos:station:TCOON:031:1,2019-06-01T05:48:00Z,28.4073,-96.7122,0.0,3.5,112.0,4.4,'11111222,11111222,11111222' 
TCOON,ioos:station:TCOON:031:1,2019-06-01T05:54:00Z,28.4073,-96.7122,0.0,3.2,109.0,5.1,'11111222,11111222,11111222' 
TCOON,ioos:station:TCOON:031:1,2019-06-01T06:00:00Z,28.4073,-96.7122,0.0,3.2,113.0,4.7,'11111222,11111222,11111222' 
TCOON,ioos:station:TCOON:031:1,2019-06-01T06:06:00Z,28.4073,-96.7122,0.0,3.9,115.0,4.9,'11111222,11111222,11111222' 
TCOON,ioos:station:TCOON:031:1,2019-06-01T06:12:00Z,28.4073,-96.7122,0.0,3.7,118.0,4.9,'11111222,11111222,11111222' 
TCOON,ioos:station:TCOON:031:1,2019-06-01T06:18:00Z,28.4073,-96.7122,0.0,3.8,120.0,4.9,'11111222,11111222,11111222' 
TCOON,ioos:station:TCOON:031:1,2019-06-01T06:24:00Z,28.4073,-96.7122,0.0,3.8,120.0,4.9,'11111222,11111222,11111222' 
TCOON,ioos:station:TCOON:031:1,2019-06-01T06:30:00Z,28.4073,-96.7122,0.0,3.7,118.0,4.9,'11111222,11111222,11111222' 
TCOON,ioos:station:TCOON:031:1,2019-06-01T06:36:00Z,28.4073,-96.7122,0.0,3.4,119.0,4.3,'11111222,11111222,11111222' 
TCOON,ioos:station:TCOON:031:1,2019-06-01T06:42:00Z,28.4073,-96.7122,0.0,4.0,121.0,5.0,'11111222,11111222,11111222' 
TCOON,ioos:station:TCOON:031:1,2019-06-01T06:48:00Z,28.4073,-96.7122,0.0,3.0,117.0,4.1,'11111222,11111222,11111222' 
TCOON,ioos:station:TCOON:031:1,2019-06-01T06:54:00Z,28.4073,-96.7122,0.0,2.3,112.0,3.3,'11111222,11111222,11111222' 
TCOON,ioos:station:TCOON:031:1,2019-06-01T07:00:00Z,28.4073,-96.7122,0.0,2.0,114.0,2.7,'11111222,11111222,11111222' 
TCOON,ioos:station:TCOON:031:1,2019-06-01T07:06:00Z,28.4073,-96.7122,0.0,2.5,110.0,3.2,'11111222,11111222,11111222' 
TCOON,ioos:station:TCOON:031:1,2019-06-01T07:12:00Z,28.4073,-96.7122,0.0,2.7,109.0,3.4,'11111222,11111222,11111222' 
TCOON,ioos:station:TCOON:031:1,2019-06-01T07:18:00Z,28.4073,-96.7122,0.0,3.0,113.0,4.1,'11111222,11111222,11111222' 
TCOON,ioos:station:TCOON:031:1,2019-06-01T07:24:00Z,28.4073,-96.7122,0.0,3.0,113.0,4.1,'11111222,11111222,11111222' 
TCOON,ioos:station:TCOON:031:1,2019-06-01T07:30:00Z,28.4073,-96.7122,0.0,2.2,101.0,3.5,'11111222,11111222,11111222' 
TCOON,ioos:station:TCOON:031:1,2019-06-01T07:36:00Z,28.4073,-96.7122,0.0,2.2,111.0,3.0,'11111222,11111222,11111222' 
TCOON,ioos:station:TCOON:031:1,2019-06-01T07:42:00Z,28.4073,-96.7122,0.0,1.6,80.0,3.3,'11111222,11111222,11111222' 
TCOON,ioos:station:TCOON:031:1,2019-06-01T07:48:00Z,28.4073,-96.7122,0.0,1.0,32.0,1.9,'11111222,11111222,11111222' 
TCOON,ioos:station:TCOON:031:1,2019-06-01T07:54:00Z,28.4073,-96.7122,0.0,1.1,26.0,1.5,'11111222,11111222,11111222' 
TCOON,ioos:station:TCOON:031:1,2019-06-01T08:00:00Z,28.4073,-96.7122,0.0,0.9,61.0,1.2,'11111222,11111222,11111222' 
TCOON,ioos:station:TCOON:031:1,2019-06-01T08:06:00Z,28.4073,-96.7122,0.0,0.9,46.0,1.3,'11111222,11111222,11111222' 
TCOON,ioos:station:TCOON:031:1,2019-06-01T08:12:00Z,28.4073,-96.7122,0.0,0.8,15.0,1.1,'11111222,11111222,11111222' 
TCOON,ioos:station:TCOON:031:1,2019-06-01T08:18:00Z,28.4073,-96.7122,0.0,1.0,6.0,1.2,'11111222,11111222,11111222' 
TCOON,ioos:station:TCOON:031:1,2019-06-01T08:24:00Z,28.4073,-96.7122,0.0,1.0,6.0,1.2,'11111222,11111222,11111222' 
TCOON,ioos:station:TCOON:031:1,2019-06-01T08:30:00Z,28.4073,-96.7122,0.0,0.6,90.0,0.9,'11111222,11111222,11111222' 
TCOON,ioos:station:TCOON:031:1,2019-06-01T08:36:00Z,28.4073,-96.7122,0.0,0.8,107.0,1.3,'11111222,11111222,11111222' 
TCOON,ioos:station:TCOON:031:1,2019-06-01T08:42:00Z,28.4073,-96.7122,0.0,2.0,133.0,2.3,'11111222,11111222,11111222' 
TCOON,ioos:station:TCOON:031:1,2019-06-01T08:48:00Z,28.4073,-96.7122,0.0,2.1,124.0,2.5,'11111222,11111222,11111222' 
TCOON,ioos:station:TCOON:031:1,2019-06-01T08:54:00Z,28.4073,-96.7122,0.0,2.0,108.0,3.0,'11111222,11111222,11111222' 
TCOON,ioos:station:TCOON:031:1,2019-06-01T09:00:00Z,28.4073,-96.7122,0.0,1.2,69.0,2.5,'11111222,11111222,11111222' 
TCOON,ioos:station:TCOON:031:1,2019-06-01T09:06:00Z,28.4073,-96.7122,0.0,1.1,29.0,1.5,'11111222,11111222,11111222' 
TCOON,ioos:station:TCOON:031:1,2019-06-01T09:12:00Z,28.4073,-96.7122,0.0,0.9,45.0,1.3,'11111222,11111222,11111222' 
TCOON,ioos:station:TCOON:031:1,2019-06-01T09:18:00Z,28.4073,-96.7122,0.0,1.2,49.0,1.5,'11111222,11111222,11111222' 
TCOON,ioos:station:TCOON:031:1,2019-06-01T09:24:00Z,28.4073,-96.7122,0.0,1.2,49.0,1.5,'11111222,11111222,11111222' 
TCOON,ioos:station:TCOON:031:1,2019-06-01T09:30:00Z,28.4073,-96.7122,0.0,1.4,65.0,1.7,'11111222,11111222,11111222' 
TCOON,ioos:station:TCOON:031:1,2019-06-01T09:36:00Z,28.4073,-96.7122,0.0,1.1,56.0,1.6,'11111222,11111222,11111222' 
TCOON,ioos:station:TCOON:031:1,2019-06-01T09:42:00Z,28.4073,-96.7122,0.0,1.0,74.0,1.5,'11111222,11111222,11111222' 
TCOON,ioos:station:TCOON:031:1,2019-06-01T09:48:00Z,28.4073,-96.7122,0.0,1.2,74.0,1.6,'11111222,11111222,11111222' 
TCOON,ioos:station:TCOON:031:1,2019-06-01T09:54:00Z,28.4073,-96.7122,0.0,0.8,44.0,1.3,'11111222,11111222,11111222' 
TCOON,ioos:station:TCOON:031:1,2019-06-01T10:00:00Z,28.4073,-96.7122,0.0,1.1,47.0,1.3,'11111222,11111222,11111222' 
TCOON,ioos:station:TCOON:031:1,2019-06-01T10:06:00Z,28.4073,-96.7122,0.0,1.3,67.0,1.5,'11111222,11111222,11111222' 
TCOON,ioos:station:TCOON:031:1,2019-06-01T10:12:00Z,28.4073,-96.7122,0.0,1.1,50.0,1.5,'11111222,11111222,11111222' 
TCOON,ioos:station:TCOON:031:1,2019-06-01T10:18:00Z,28.4073,-96.7122,0.0,1.3,48.0,1.5,'11111222,11111222,11111222' 
TCOON,ioos:station:TCOON:031:1,2019-06-01T10:24:00Z,28.4073,-96.7122,0.0,1.3,48.0,1.5,'11111222,11111222,11111222' 
TCOON,ioos:station:TCOON:031:1,2019-06-01T10:30:00Z,28.4073,-96.7122,0.0,1.3,53.0,1.6,'11111222,11111222,11111222' 
TCOON,ioos:station:TCOON:031:1,2019-06-01T10:36:00Z,28.4073,-96.7122,0.0,1.3,54.0,1.6,'11111222,11111222,11111222' 
TCOON,ioos:station:TCOON:031:1,2019-06-01T10:42:00Z,28.4073,-96.7122,0.0,1.2,68.0,1.6,'11111222,11111222,11111222' 
TCOON,ioos:station:TCOON:031:1,2019-06-01T10:48:00Z,28.4073,-96.7122,0.0,1.2,67.0,1.6,'11111222,11111222,11111222' 
TCOON,ioos:station:TCOON:031:1,2019-06-01T10:54:00Z,28.4073,-96.7122,0.0,0.9,66.0,1.5,'11111222,11111222,11111222' 
TCOON,ioos:station:TCOON:031:1,2019-06-01T11:00:00Z,28.4073,-96.7122,0.0,0.9,34.0,1.2,'11111222,11111222,11111222' 
TCOON,ioos:station:TCOON:031:1,2019-06-01T11:06:00Z,28.4073,-96.7122,0.0,1.2,53.0,1.5,'11111222,11111222,11111222' 
TCOON,ioos:station:TCOON:031:1,2019-06-01T11:12:00Z,28.4073,-96.7122,0.0,1.1,40.0,1.4,'11111222,11111222,11111222' 
TCOON,ioos:station:TCOON:031:1,2019-06-01T11:18:00Z,28.4073,-96.7122,0.0,1.0,51.0,1.5,'11111222,11111222,11111222' 
TCOON,ioos:station:TCOON:031:1,2019-06-01T11:24:00Z,28.4073,-96.7122,0.0,1.0,51.0,1.5,'11111222,11111222,11111222' 
TCOON,ioos:station:TCOON:031:1,2019-06-01T11:30:00Z,28.4073,-96.7122,0.0,1.6,48.0,1.9,'11111222,11111222,11111222' 
TCOON,ioos:station:TCOON:031:1,2019-06-01T11:36:00Z,28.4073,-96.7122,0.0,1.4,52.0,1.9,'11111222,11111222,11111222' 
TCOON,ioos:station:TCOON:031:1,2019-06-01T11:42:00Z,28.4073,-96.7122,0.0,1.0,55.0,1.4,'11111222,11111222,11111222' 
TCOON,ioos:station:TCOON:031:1,2019-06-01T11:48:00Z,28.4073,-96.7122,0.0,0.9,77.0,1.4,'11111222,11111222,11111222' 
TCOON,ioos:station:TCOON:031:1,2019-06-01T11:54:00Z,28.4073,-96.7122,0.0,1.1,61.0,1.5,'11111222,11111222,11111222' 
TCOON,ioos:station:TCOON:031:1,2019-06-01T12:00:00Z,28.4073,-96.7122,0.0,1.1,57.0,1.6,'11111222,11111222,11111222' 
TCOON,ioos:station:TCOON:031:1,2019-06-01T12:06:00Z,28.4073,-96.7122,0.0,1.1,51.0,1.5,'11111222,11111222,11111222' 
TCOON,ioos:station:TCOON:031:1,2019-06-01T12:12:00Z,28.4073,-96.7122,0.0,1.2,56.0,1.4,'11111222,11111222,11111222' 
TCOON,ioos:station:TCOON:031:1,2019-06-01T12:18:00Z,28.4073,-96.7122,0.0,1.2,50.0,1.6,'11111222,11111222,11111222' 
TCOON,ioos:station:TCOON:031:1,2019-06-01T12:24:00Z,28.4073,-96.7122,0.0,1.2,50.0,1.6,'11111222,11111222,11111222' 
TCOON,ioos:station:TCOON:031:1,2019-06-01T12:30:00Z,28.4073,-96.7122,0.0,1.2,56.0,1.9,'11111222,11111222,11111222' 
TCOON,ioos:station:TCOON:031:1,2019-06-01T12:36:00Z,28.4073,-96.7122,0.0,1.4,68.0,1.8,'11111222,11111222,11111222' 
TCOON,ioos:station:TCOON:031:1,2019-06-01T12:42:00Z,28.4073,-96.7122,0.0,1.3,74.0,1.9,'11111222,11111222,11111222' 
TCOON,ioos:station:TCOON:031:1,2019-06-01T12:48:00Z,28.4073,-96.7122,0.0,1.4,69.0,1.8,'11111222,11111222,11111222' 
TCOON,ioos:station:TCOON:031:1,2019-06-01T12:54:00Z,28.4073,-96.7122,0.0,1.1,68.0,2.2,'11111222,11111222,11111222' 
TCOON,ioos:station:TCOON:031:1,2019-06-01T13:00:00Z,28.4073,-96.7122,0.0,0.9,55.0,1.4,'11111222,11111222,11111222' 
TCOON,ioos:station:TCOON:031:1,2019-06-01T13:06:00Z,28.4073,-96.7122,0.0,0.3,77.0,1.3,'11111222,11111222,11111222' 
TCOON,ioos:station:TCOON:031:1,2019-06-01T13:12:00Z,28.4073,-96.7122,0.0,0.1,93.0,1.2,'11111222,11111222,11111222' 
TCOON,ioos:station:TCOON:031:1,2019-06-01T13:18:00Z,28.4073,-96.7122,0.0,0.5,96.0,1.0,'11111222,11111222,11111222' 
TCOON,ioos:station:TCOON:031:1,2019-06-01T13:24:00Z,28.4073,-96.7122,0.0,0.5,96.0,1.0,'11111222,11111222,11111222' 
TCOON,ioos:station:TCOON:031:1,2019-06-01T13:30:00Z,28.4073,-96.7122,0.0,0.2,56.0,0.6,'11111222,11111222,11111222' 
TCOON,ioos:station:TCOON:031:1,2019-06-01T13:36:00Z,28.4073,-96.7122,0.0,0.5,127.0,0.8,'11111222,11111222,11111222' 
TCOON,ioos:station:TCOON:031:1,2019-06-01T13:42:00Z,28.4073,-96.7122,0.0,2.5,124.0,2.9,'11111222,11111222,11111222' 
TCOON,ioos:station:TCOON:031:1,2019-06-01T13:48:00Z,28.4073,-96.7122,0.0,2.0,134.0,3.0,'11111222,11111222,11111222' 
TCOON,ioos:station:TCOON:031:1,2019-06-01T13:54:00Z,28.4073,-96.7122,0.0,1.7,152.0,2.9,'11111222,11111222,11111222' 
TCOON,ioos:station:TCOON:031:1,2019-06-01T14:00:00Z,28.4073,-96.7122,0.0,1.8,169.0,2.2,'11111222,11111222,11111222' 
TCOON,ioos:station:TCOON:031:1,2019-06-01T14:06:00Z,28.4073,-96.7122,0.0,2.0,148.0,3.8,'11111222,11111222,11111222' 
TCOON,ioos:station:TCOON:031:1,2019-06-01T14:12:00Z,28.4073,-96.7122,0.0,1.7,152.0,2.4,'11111222,11111222,11111222' 
TCOON,ioos:station:TCOON:031:1,2019-06-01T14:18:00Z,28.4073,-96.7122,0.0,1.6,149.0,2.0,'11111222,11111222,11111222' 
TCOON,ioos:station:TCOON:031:1,2019-06-01T14:24:00Z,28.4073,-96.7122,0.0,1.6,149.0,2.0,'11111222,11111222,11111222' 
TCOON,ioos:station:TCOON:031:1,2019-06-01T14:30:00Z,28.4073,-96.7122,0.0,2.1,135.0,2.7,'11111222,11111222,11111222' 
TCOON,ioos:station:TCOON:031:1,2019-06-01T14:36:00Z,28.4073,-96.7122,0.0,2.6,163.0,3.0,'11111222,11111222,11111222' 
TCOON,ioos:station:TCOON:031:1,2019-06-01T14:42:00Z,28.4073,-96.7122,0.0,2.2,176.0,2.7,'11111222,11111222,11111222' 
TCOON,ioos:station:TCOON:031:1,2019-06-01T14:48:00Z,28.4073,-96.7122,0.0,2.1,146.0,3.1,'11111222,11111222,11111222' 
TCOON,ioos:station:TCOON:031:1,2019-06-01T14:54:00Z,28.4073,-96.7122,0.0,2.5,165.0,3.1,'11111222,11111222,11111222' 
TCOON,ioos:station:TCOON:031:1,2019-06-01T15:00:00Z,28.4073,-96.7122,0.0,2.6,150.0,4.1,'11111222,11111222,11111222' 
TCOON,ioos:station:TCOON:031:1,2019-06-01T15:06:00Z,28.4073,-96.7122,0.0,2.1,151.0,3.3,'11111222,11111222,11111222' 
TCOON,ioos:station:TCOON:031:1,2019-06-01T15:12:00Z,28.4073,-96.7122,0.0,2.3,164.0,3.0,'11111222,11111222,11111222' 
TCOON,ioos:station:TCOON:031:1,2019-06-01T15:18:00Z,28.4073,-96.7122,0.0,2.2,143.0,4.2,'11111222,11111222,11111222' 
TCOON,ioos:station:TCOON:031:1,2019-06-01T15:24:00Z,28.4073,-96.7122,0.0,2.2,143.0,2.3,'11111222,11111222,11111222' 
TCOON,ioos:station:TCOON:031:1,2019-06-01T15:30:00Z,28.4073,-96.7122,0.0,1.4,119.0,2.1,'11111222,11111222,11111222' 
TCOON,ioos:station:TCOON:031:1,2019-06-01T15:36:00Z,28.4073,-96.7122,0.0,2.5,189.0,3.4,'11111222,11111222,11111222' 
TCOON,ioos:station:TCOON:031:1,2019-06-01T15:42:00Z,28.4073,-96.7122,0.0,3.2,191.0,3.9,'11111222,11111222,11111222' 
TCOON,ioos:station:TCOON:031:1,2019-06-01T15:48:00Z,28.4073,-96.7122,0.0,1.4,145.0,3.6,'11111222,11111222,11111222' 
TCOON,ioos:station:TCOON:031:1,2019-06-01T15:54:00Z,28.4073,-96.7122,0.0,2.1,138.0,3.5,'11111222,11111222,11111222' 
TCOON,ioos:station:TCOON:031:1,2019-06-01T16:00:00Z,28.4073,-96.7122,0.0,3.8,109.0,4.8,'11111222,11111222,11111222' 
TCOON,ioos:station:TCOON:031:1,2019-06-01T16:06:00Z,28.4073,-96.7122,0.0,4.8,133.0,5.7,'11111222,11111222,11111222' 
TCOON,ioos:station:TCOON:031:1,2019-06-01T16:12:00Z,28.4073,-96.7122,0.0,4.5,116.0,5.5,'11111222,11111222,11111222' 
TCOON,ioos:station:TCOON:031:1,2019-06-01T16:18:00Z,28.4073,-96.7122,0.0,3.3,115.0,4.8,'11111222,11111222,11111222' 
TCOON,ioos:station:TCOON:031:1,2019-06-01T16:24:00Z,28.4073,-96.7122,0.0,3.3,115.0,4.8,'11111222,11111222,11111222' 
TCOON,ioos:station:TCOON:031:1,2019-06-01T16:30:00Z,28.4073,-96.7122,0.0,3.4,104.0,5.6,'11111222,11111222,11111222' 
TCOON,ioos:station:TCOON:031:1,2019-06-01T16:36:00Z,28.4073,-96.7122,0.0,4.1,127.0,6.3,'11111222,11111222,11111222' 
TCOON,ioos:station:TCOON:031:1,2019-06-01T16:42:00Z,28.4073,-96.7122,0.0,3.3,128.0,5.6,'11111222,11111222,11111222' 
TCOON,ioos:station:TCOON:031:1,2019-06-01T16:48:00Z,28.4073,-96.7122,0.0,4.2,115.0,6.1,'11111222,11111222,11111222' 
TCOON,ioos:station:TCOON:031:1,2019-06-01T16:54:00Z,28.4073,-96.7122,0.0,5.2,134.0,6.4,'11111222,11111222,11111222' 
TCOON,ioos:station:TCOON:031:1,2019-06-01T17:00:00Z,28.4073,-96.7122,0.0,3.8,127.0,5.6,'11111222,11111222,11111222' 
TCOON,ioos:station:TCOON:031:1,2019-06-01T17:06:00Z,28.4073,-96.7122,0.0,4.5,100.0,6.0,'11111222,11111222,11111222' 
TCOON,ioos:station:TCOON:031:1,2019-06-01T17:12:00Z,28.4073,-96.7122,0.0,4.4,131.0,6.1,'11111222,11111222,11111222' 
TCOON,ioos:station:TCOON:031:1,2019-06-01T17:18:00Z,28.4073,-96.7122,0.0,4.6,131.0,6.7,'11111222,11111222,11111222' 
TCOON,ioos:station:TCOON:031:1,2019-06-01T17:24:00Z,28.4073,-96.7122,0.0,3.7,131.0,6.3,'11111222,11111222,11111222' 
TCOON,ioos:station:TCOON:031:1,2019-06-01T17:30:00Z,28.4073,-96.7122,0.0,4.3,120.0,6.8,'11111222,11111222,11111222' 
TCOON,ioos:station:TCOON:031:1,2019-06-01T17:36:00Z,28.4073,-96.7122,0.0,4.2,134.0,5.7,'11111222,11111222,11111222' 
TCOON,ioos:station:TCOON:031:1,2019-06-01T17:42:00Z,28.4073,-96.7122,0.0,4.9,119.0,6.9,'11111222,11111222,11111222' 
TCOON,ioos:station:TCOON:031:1,2019-06-01T17:48:00Z,28.4073,-96.7122,0.0,5.3,125.0,7.5,'11111222,11111222,11111222' 
TCOON,ioos:station:TCOON:031:1,2019-06-01T17:54:00Z,28.4073,-96.7122,0.0,4.4,125.0,6.9,'11111222,11111222,11111222' 
TCOON,ioos:station:TCOON:031:1,2019-06-01T18:00:00Z,28.4073,-96.7122,0.0,4.8,137.0,5.9,'11111222,11111222,11111222' 
TCOON,ioos:station:TCOON:031:1,2019-06-01T18:06:00Z,28.4073,-96.7122,0.0,4.1,124.0,5.8,'11111222,11111222,11111222' 
TCOON,ioos:station:TCOON:031:1,2019-06-01T18:12:00Z,28.4073,-96.7122,0.0,3.7,102.0,5.7,'11111222,11111222,11111222' 
TCOON,ioos:station:TCOON:031:1,2019-06-01T18:18:00Z,28.4073,-96.7122,0.0,4.9,126.0,6.4,'11111222,11111222,11111222' 
TCOON,ioos:station:TCOON:031:1,2019-06-01T18:24:00Z,28.4073,-96.7122,0.0,4.9,126.0,6.4,'11111222,11111222,11111222' 
TCOON,ioos:station:TCOON:031:1,2019-06-01T18:30:00Z,28.4073,-96.7122,0.0,4.3,125.0,7.0,'11111222,11111222,11111222' 
TCOON,ioos:station:TCOON:031:1,2019-06-01T18:36:00Z,28.4073,-96.7122,0.0,5.5,120.0,7.3,'11111222,11111222,11111222' 
TCOON,ioos:station:TCOON:031:1,2019-06-01T18:42:00Z,28.4073,-96.7122,0.0,5.6,136.0,7.1,'11111222,11111222,11111222' 
TCOON,ioos:station:TCOON:031:1,2019-06-01T18:48:00Z,28.4073,-96.7122,0.0,5.5,138.0,7.7,'11111222,11111222,11111222' 
TCOON,ioos:station:TCOON:031:1,2019-06-01T18:54:00Z,28.4073,-96.7122,0.0,5.8,112.0,7.4,'11111222,11111222,11111222' 
TCOON,ioos:station:TCOON:031:1,2019-06-01T19:00:00Z,28.4073,-96.7122,0.0,4.7,122.0,7.1,'11111222,11111222,11111222' 
TCOON,ioos:station:TCOON:031:1,2019-06-01T19:06:00Z,28.4073,-96.7122,0.0,4.7,116.0,7.9,'11111222,11111222,11111222' 
TCOON,ioos:station:TCOON:031:1,2019-06-01T19:12:00Z,28.4073,-96.7122,0.0,5.7,131.0,7.7,'11111222,11111222,11111222' 
TCOON,ioos:station:TCOON:031:1,2019-06-01T19:18:00Z,28.4073,-96.7122,0.0,5.4,110.0,7.7,'11111222,11111222,11111222' 
TCOON,ioos:station:TCOON:031:1,2019-06-01T19:24:00Z,28.4073,-96.7122,0.0,5.4,110.0,7.7,'11111222,11111222,11111222' 
TCOON,ioos:station:TCOON:031:1,2019-06-01T19:30:00Z,28.4073,-96.7122,0.0,5.5,111.0,8.1,'11111222,11111222,11111222' 
TCOON,ioos:station:TCOON:031:1,2019-06-01T19:36:00Z,28.4073,-96.7122,0.0,4.9,117.0,6.1,'11111222,11111222,11111222' 
TCOON,ioos:station:TCOON:031:1,2019-06-01T19:42:00Z,28.4073,-96.7122,0.0,4.6,105.0,6.2,'11111222,11111222,11111222' 
TCOON,ioos:station:TCOON:031:1,2019-06-01T19:48:00Z,28.4073,-96.7122,0.0,4.9,140.0,5.6,'11111222,11111222,11111222' 
TCOON,ioos:station:TCOON:031:1,2019-06-01T19:54:00Z,28.4073,-96.7122,0.0,5.1,134.0,6.2,'11111222,11111222,11111222' 
TCOON,ioos:station:TCOON:031:1,2019-06-01T20:00:00Z,28.4073,-96.7122,0.0,5.5,115.0,7.7,'11111222,11111222,11111222' 
TCOON,ioos:station:TCOON:031:1,2019-06-01T20:06:00Z,28.4073,-96.7122,0.0,4.5,110.0,5.9,'11111222,11111222,11111222' 
TCOON,ioos:station:TCOON:031:1,2019-06-01T20:12:00Z,28.4073,-96.7122,0.0,4.5,128.0,5.6,'11111222,11111222,11111222' 
TCOON,ioos:station:TCOON:031:1,2019-06-01T20:18:00Z,28.4073,-96.7122,0.0,4.9,118.0,7.2,'11111222,11111222,11111222' 
TCOON,ioos:station:TCOON:031:1,2019-06-01T20:24:00Z,28.4073,-96.7122,0.0,4.9,118.0,7.2,'11111222,11111222,11111222' 
TCOON,ioos:station:TCOON:031:1,2019-06-01T20:30:00Z,28.4073,-96.7122,0.0,4.5,122.0,6.7,'11111222,11111222,11111222' 